星链-5172 (STARLINK-5172 )

导读

STARLINK-5172是美国SpaceX星链互联网卫星项目的一员,于2022年10月20日发射入轨,属于星链低轨星座组网卫星。星链计划旨在搭建全球覆盖的卫星互联网网络,STARLINK-5172作为组网卫星,为提升星链全球网络覆盖密度、通信服务能力提供支撑,服务全球偏远区域互联网接入需求。

Basic Information
目录编号:
54064
目录名称:
STARLINK-5172
国际标识:
2022-136P
轨道中心:
EARTH
卫星名称:
星链-5172
卫星全名:
星链-5172 (STARLINK-5172 )
卫星状态:
在轨 (已飞行1423 天)
发射日期:
2022-10-20 UTC
国别 :
美国 (US)
星等 :
--
This satellite is enrolled in the Space Conjunction Data Service (SCDS) and the current flight risk assessment level is: No High Risk
Orbit Information
数据来源 国际轨道数据 AOE轨道数据
星历时间 2026-09-12T11:09:29+0800
9小时前
查看轨道信息
2026-09-10T02:00:00+0800
2天前
查看轨道信息
半长轴 6848.862km 6848.873km
偏心率 0.0001123 0.0001334
轨道倾角 53.161° 53.158°
近地点辐角 81.501° 92.380°
升交点赤经 169.471° 180.563°
平近点角 278.612° 87.977°
近地点 469.955km 469.822km
远地点 471.495km 471.65km
周期 94.013分钟 94.013分钟
每日圈数 15.317052 15.317014
Detailed Information
固有亮度:
5
最大亮度:
2.5
卫星平台:
Starlink v1.5
覆盖范围:
全球
运营商:
太空探索技术公司
运营商所在国:
美国
制造商(研发单位):
太空探索技术公司
制造商所在国:
美国
使用方式:
暂无
Satellite Introduction
星链(Starlink)计划是由太空探索技术公司(SpaceX)提出的一个巨型低轨卫星互联网星座项目,计划在2019年至2024年间在太空搭建由约1.2万颗卫星组成的“星链”网络,其中1584颗将部署在地球上空550千米处的近地轨道,并从2020年开始工作。该卫星仍在工作。
2D Orbit Map
3D Orbit Map
Orbit Altitude Analysis Chart
Orbit Inclination Analysis Chart
Orbit Comprehensive Analysis Chart
View Comprehensive Chart
Conjunction Data List
Event ID Objects TCA Miss Dist (km) Collision Risk Probability Collision Risk Index (CRI) Action
CDM_260913-031804-431605-406424
OBJECT G (44316)
2026-09-13T
03:18:05+0000
2.228 km
极远距离
1.8134E-6 低风险 0.4
CDM_260914-140504-574705-406421
2026-09-14T
14:05:26+0000
2.463 km
极远距离
1.443873E-6 低风险 0.38
CDM_260913-043905-406406-933021
2026-09-13T
04:39:44+0000
2.732 km
极远距离
1.415162E-6 低风险 0.38
CDM_260914-123104-574705-406421
2026-09-14T
12:31:29+0000
2.594 km
极远距离
1.321277E-6 低风险 0.37
CDM_260912-134705-406406-877821
2026-09-12T
13:47:45+0000
2.936 km
极远距离
1.291839E-6 低风险 0.37
CDM_260914-032005-406406-884421
2026-09-14T
03:20:25+0000
2.884 km
极远距离
1.277977E-6 低风险 0.37
CDM_260914-153904-574705-406421
2026-09-14T
15:39:24+0000
2.776 km
极远距离
1.193635E-6 低风险 0.37
CDM_260907-031005-406405-740824
2026-09-07T
03:10:42+0000
2.943 km
极远距离
1.057959E-6 低风险 0.35
Miss Distance Evolution Trend with All Objects
Collision Probability Evolution Trend with All Objects